Date String (YYYY-MM-DD hh:mm:ss) UTC,Instrument flags,absolute air pressure of the measurement (hPa),sample flow rate (lpm),inlet stack bypass flow (lpm),air temperature of the measurement (°C),ambient temperature measured by the external sensor (°C),aerosol sample conditioner tube jacket temperature (°C),OPC LED temperature (°C),internal box temperature (°C),relative humidity of the measurement (%),span deviation,mass concentration of particles derived from Lorenz-Mie calculation of OPC scattering (μg/m³),mass concentration of particles derived from Lorenz-Mie calculation of OPC scattering (μg/m³),mass concentration of particles derived from Lorenz-Mie calculation of OPC scattering (μg/m³)
DateTimeUTC,F1_M11,P_M11,Q1_M11,Q2_M11,T1_M11,T2_M11,T3_M11,T4_M11,T5_M11,U1_M11,ZSPAN_M11,X2_M11,X0_M11,X1_M11
2023-09-19 20:00:00,SystemResetWarning,0828.3,5.00,000.00,027.8,026.6,000.0,036.1,029.5,19.0,0000.0,0002.15,0004.62,0001.69
2023-09-19 20:01:00,SystemResetWarning,0828.4,5.01,000.00,027.9,026.8,000.0,036.1,029.6,19.1,0000.0,0002.13,0004.58,0001.69
2023-09-19 20:02:00,SystemResetWarning,0828.3,5.01,000.00,027.9,026.9,000.0,036.2,029.7,18.2,0000.0,0002.13,0004.32,0001.69
2023-09-19 20:03:00,SystemResetWarning,0828.3,4.97,000.00,027.9,026.1,000.0,036.2,029.5,18.1,0000.0,0002.14,0004.85,0001.70
2023-09-19 20:04:00,SystemResetWarning,0828.3,5.01,000.00,027.8,024.4,000.0,036.1,028.9,18.0,0000.0,0002.14,0005.72,0001.71
2023-09-19 20:05:00,SystemResetWarning,0828.3,5.01,000.00,027.7,024.0,000.0,036.0,028.9,18.2,0000.0,0002.15,0006.84,0001.72
2023-09-19 20:06:00,SystemResetWarning,0828.3,5.00,000.00,027.6,024.2,000.0,036.0,029.0,18.7,0000.0,0002.18,0006.97,0001.72
2023-09-19 20:07:00,SystemResetWarning,0828.4,4.99,000.00,027.6,024.6,000.0,036.0,029.0,18.8,0000.0,0002.17,0006.93,0001.72
2023-09-19 20:08:00,SystemResetWarning,0828.4,5.00,000.00,027.6,025.0,000.0,036.0,029.0,18.8,0000.0,0002.13,0006.03,0001.72
2023-09-19 20:09:00,SystemResetWarning,0828.4,5.00,000.00,027.6,025.3,000.0,036.0,029.1,18.9,0000.0,0002.13,0006.06,0001.71
2023-09-19 20:10:00,SystemResetWarning,0828.4,5.00,000.00,027.6,025.7,000.0,036.0,029.2,19.2,0000.0,0002.14,0006.06,0001.72
2023-09-19 20:11:00,SystemResetWarning,0828.4,5.00,000.00,027.7,026.0,000.0,036.0,029.3,19.5,0000.0,0002.11,0006.41,0001.72
2023-09-19 20:12:00,SystemResetWarning,0828.4,5.00,000.00,027.7,026.2,000.0,036.0,029.3,19.5,0000.0,0002.15,0007.02,0001.73
2023-09-19 20:13:00,SystemResetWarning,0828.5,5.00,000.00,027.7,026.4,000.0,036.1,029.4,19.7,0000.0,0002.15,0006.99,0001.73
2023-09-19 20:14:00,SystemResetWarning,0828.6,5.00,000.00,027.8,026.6,000.0,036.1,029.5,19.0,0000.0,0002.10,0006.47,0001.70
2023-09-19 20:15:00,SystemResetWarning,0828.5,5.00,000.00,027.8,026.7,000.0,036.1,029.5,18.5,0000.0,0002.08,0005.50,0001.68
2023-09-19 20:16:00,SystemResetWarning,0828.6,5.00,000.00,027.9,026.9,000.0,036.1,029.6,18.6,0000.0,0002.06,0004.41,0001.67
2023-09-19 20:17:00,SystemResetWarning,0828.5,5.00,000.00,027.9,027.0,000.0,036.1,029.7,18.4,0000.0,0002.01,0004.22,0001.67
2023-09-19 20:18:00,SystemResetWarning,0828.6,4.98,000.00,027.9,025.9,000.0,036.1,029.5,18.3,0000.0,0002.02,0004.23,0001.66
2023-09-19 20:19:00,SystemResetWarning,0828.5,5.01,000.00,027.8,024.8,000.0,036.1,029.3,18.9,0000.0,0002.05,0004.38,0001.66
2023-09-19 20:20:00,SystemResetWarning,0828.6,5.01,000.00,027.8,024.8,000.0,036.1,029.2,19.0,0000.0,0002.04,0004.26,0001.66
2023-09-19 20:21:00,SystemResetWarning,0828.6,5.00,000.00,027.7,025.1,000.0,036.1,029.2,19.1,0000.0,0002.01,0004.18,0001.65
2023-09-19 20:22:00,SystemResetWarning,0828.6,5.00,000.00,027.7,025.4,000.0,036.1,029.2,18.9,0000.0,0002.00,0003.94,0001.64
2023-09-19 20:23:00,SystemResetWarning,0828.6,5.00,000.00,027.7,025.7,000.0,036.1,029.3,18.9,0000.0,0002.00,0004.32,0001.64
2023-09-19 20:24:00,SystemResetWarning,0828.6,5.00,000.00,027.8,026.0,000.0,036.1,029.4,19.5,0000.0,0001.98,0004.86,0001.63
2023-09-19 20:25:00,SystemResetWarning,0828.6,4.99,000.00,027.8,026.2,000.0,036.1,029.4,19.0,0000.0,0001.99,0004.79,0001.64
2023-09-19 20:26:00,SystemResetWarning,0828.6,5.00,000.00,027.9,026.4,000.0,036.1,029.5,18.9,0000.0,0002.03,0004.88,0001.65
2023-09-19 20:27:00,SystemResetWarning,0828.6,5.00,000.00,027.9,026.6,000.0,036.2,029.6,18.6,0000.0,0002.07,0004.78,0001.66
2023-09-19 20:28:00,SystemResetWarning,0828.6,5.00,000.00,027.9,026.8,000.0,036.2,029.6,18.2,0000.0,0002.06,0004.68,0001.66
2023-09-19 20:29:00,SystemResetWarning,0828.6,4.99,000.00,028.0,026.9,000.0,036.2,029.7,18.5,0000.0,0002.09,0004.78,0001.67
2023-09-19 20:30:00,SystemResetWarning,0828.6,4.99,000.00,028.0,026.4,000.0,036.2,029.6,18.4,0000.0,0002.08,0004.69,0001.69
2023-09-19 20:31:00,SystemResetWarning,0828.6,5.01,000.00,027.9,025.0,000.0,036.2,029.2,19.0,0000.0,0002.12,0005.20,0001.71
2023-09-19 20:32:00,SystemResetWarning,0828.6,5.01,000.00,027.8,024.8,000.0,036.1,029.2,18.9,0000.0,0002.16,0005.95,0001.72
2023-09-19 20:33:00,SystemResetWarning,0828.6,4.99,000.00,027.8,025.0,000.0,036.1,029.2,18.5,0000.0,0002.24,0006.94,0001.74
2023-09-19 20:34:00,SystemResetWarning,0828.6,4.99,000.00,027.8,025.3,000.0,036.2,029.2,18.1,0000.0,0002.28,0007.48,0001.76
2023-09-19 20:35:00,SystemResetWarning,0828.6,5.00,000.00,027.8,025.6,000.0,036.2,029.3,18.2,0000.0,0002.33,0007.91,0001.78
2023-09-19 20:36:00,SystemResetWarning,0828.6,5.01,000.00,027.8,025.9,000.0,036.2,029.4,18.4,0000.0,0002.37,0008.28,0001.79
2023-09-19 20:37:00,SystemResetWarning,0828.6,5.01,000.00,027.8,026.2,000.0,036.2,029.4,18.5,0000.0,0002.39,0008.28,0001.80
2023-09-19 20:38:00,SystemResetWarning,0828.6,5.01,000.00,027.9,026.4,000.0,036.2,029.5,19.0,0000.0,0002.42,0008.35,0001.81
2023-09-19 20:39:00,SystemResetWarning,0828.6,4.99,000.00,027.9,026.6,000.0,036.2,029.6,19.2,0000.0,0002.47,0008.47,0001.81
2023-09-19 20:40:00,SystemResetWarning,0828.7,5.00,000.00,027.9,026.7,000.0,036.2,029.7,19.2,0000.0,0002.53,0008.59,0001.82
2023-09-19 20:41:00,SystemResetWarning,0828.6,5.00,000.00,028.0,026.9,000.0,036.2,029.7,19.4,0000.0,0002.54,0008.75,0001.81
2023-09-19 20:42:00,SystemResetWarning,0828.6,5.00,000.00,028.0,027.0,000.0,036.3,029.8,19.5,0000.0,0002.57,0008.88,0001.79
2023-09-19 20:43:00,SystemResetWarning,0828.7,4.99,000.00,028.0,026.1,000.0,036.3,029.5,19.5,0000.0,0002.53,0008.35,0001.78
2023-09-19 20:44:00,SystemResetWarning,0828.6,5.02,000.00,027.9,024.9,000.0,036.2,029.2,19.6,0000.0,0002.48,0007.99,0001.78
2023-09-19 20:45:00,SystemResetWarning,0828.7,5.00,000.00,027.8,024.8,000.0,036.2,029.2,19.6,0000.0,0002.44,0007.28,0001.77
2023-09-19 20:46:00,SystemResetWarning,0828.7,5.00,000.00,027.8,025.0,000.0,036.2,029.2,19.8,0000.0,0002.39,0005.81,0001.76
2023-09-19 20:47:00,SystemResetWarning,0828.8,4.99,000.00,027.8,025.3,000.0,036.2,029.2,19.7,0000.0,0002.36,0005.09,0001.76
2023-09-19 20:48:00,SystemResetWarning,0828.8,5.00,000.00,027.8,025.6,000.0,036.2,029.3,19.6,0000.0,0002.34,0005.08,0001.76
2023-09-19 20:49:00,SystemResetWarning,0828.8,5.01,000.00,027.8,025.9,000.0,036.2,029.3,20.2,0000.0,0002.28,0006.09,0001.76
2023-09-19 20:50:00,SystemResetWarning,0828.9,5.01,000.00,027.8,026.1,000.0,036.2,029.4,20.1,0000.0,0002.26,0006.64,0001.77
2023-09-19 20:51:00,SystemResetWarning,0828.9,5.00,000.00,027.9,026.3,000.0,036.2,029.5,19.5,0000.0,0002.26,0006.77,0001.79
2023-09-19 20:52:00,SystemResetWarning,0828.9,5.00,000.00,027.9,026.5,000.0,036.2,029.5,19.4,0000.0,0002.27,0006.52,0001.80
2023-09-19 20:53:00,SystemResetWarning,0828.8,5.01,000.00,027.9,026.7,000.0,036.2,029.6,19.8,0000.0,0002.25,0006.56,0001.82
2023-09-19 20:54:00,SystemResetWarning,0828.8,5.00,000.00,028.0,026.8,000.0,036.3,029.7,20.0,0000.0,0002.24,0006.86,0001.82
2023-09-19 20:55:00,SystemResetWarning,0828.8,4.99,000.00,028.0,026.9,000.0,036.3,029.7,20.2,0000.0,0002.24,0006.72,0001.82
2023-09-19 20:56:00,SystemResetWarning,0828.7,4.99,000.00,028.1,026.5,000.0,036.3,029.6,20.1,0000.0,0002.26,0006.64,0001.82
2023-09-19 20:57:00,SystemResetWarning,0828.7,5.01,000.00,028.0,025.0,000.0,036.2,029.3,19.8,0000.0,0002.29,0006.62,0001.82
2023-09-19 20:58:00,SystemResetWarning,0828.7,5.01,000.00,027.9,024.6,000.0,036.2,029.3,20.2,0000.0,0002.29,0006.50,0001.83
2023-09-19 20:59:00,SystemResetWarning,0828.7,4.99,000.00,027.8,024.8,000.0,036.2,029.2,20.3,0000.0,0002.30,0006.42,0001.83
